Weather in Kadnikovo

Russia / Sverdlovsk Oblast     56°35′01″N   60°54′36″E
temp.,
°C
wind,
m/s
gust,
m/s
humid.,
%
clouds,
%
prec.,
mm/h
press.,
hPa
HPBL,
m
17 may, tue
tue1723:00+10wsw3891100 0.6 997303
02:00+9wsw498896 0.6 997456
05:00+9w51191100 0.9 998487
08:00+9w4986100 0.3 999469
11:00+11w357775 1.3 1000602
14:00+15wsw4557100 0.3 10001517
17:00+15wsw365217 0.6 10011558
20:00+13sw25735 0.3 1001199
18 may, wed
wed1823:00+9ssw228718 0.3 100215
02:00+8sw228884 0.0 100223
05:00+7wsw269287 0.0 1003114
08:00+11w486614 0.0 1003592
11:00+15sw45444 0.0 10031778
14:00+17sw353379 0.0 10012585
17:00+15ssw5646100 0.0 10001669
20:00+10s3682100 0.3 1001406
19 may, thu
thu1923:00+9wnw2691100 0.6 1000268
02:00+8wsw278994 0.0 1000310
05:00+6wsw39895 0.1 1000314
08:00+9w587845 0.0 1001679
11:00+9w5971100 0.1 10031229
14:00+7w61075100 0.1 10051214
17:00+10w596271 0.3 10061617
20:00+9w376149 0.1 1006663
20 may, fri
fri2023:00+6sw4108536 0.1 1006480
02:00+6sw3986100 0.0 1006673
05:00+5w5880100 0.0 1007973
08:00+6w4668100 0.0 1007961
11:00+10wsw344597 0.0 10061750
14:00+12w3438100 0.0 10052356
17:00+12w2337100 0.0 10032044
20:00+10wnw245420 0.0 1003148
21 may, sat
sat2123:00+5nw22725 0.0 100331
02:00+3nw22775 0.0 100339
05:00+2nnw22805 0.0 100323
08:00+7n225897 0.0 1002416
11:00+12n0145100 0.0 10011945
14:00+9nnw3369100 0.4 1001829
17:00+9nnw3467100 0.6 1001897
20:00+8nw4769100 0.2 10011027